Eilat, Israel

4:27 AM IDT on August 30, 2016 (GMT +0300)
Eilat

Weather History for LLET - January, 2014

Change the Weather History Date:

Friday, January 3, 2014

  Actual Average Record
Temperature  
Mean Temperature 60 °F -  
Max Temperature 70 °F 68 °F 77 °F (2000)
Min Temperature 50 °F 51 °F 42 °F (2009)
Degree Days  
Heating Degree Days 5    
Growing Degree Days 10 (Base 50)    
Moisture  
Dew Point 45 °F    
Average Humidity 54    
Maximum Humidity 82    
Minimum Humidity 29    
Precipitation  
Precipitation 0.00 in 0.01 in - ()
Sea Level Pressure  
Sea Level Pressure 30.09 in    
Wind  
Wind Speed 9 mph ()    
Max Wind Speed 20 mph    
Max Gust Speed -    
Averages and records for this station are not official NWS values.
T = Trace of Precipitation, MM = Missing Value Source: Averaged Metar Reports

Daily Weather History Graph

Daily Weather History Graph

Search for Another Location

Airport or City:

Trip Planner

Search our weather history database for the weather conditions in past years. The results will help you decide how hot, cold, wet, or windy it might be!

Date:

Astronomy

Jan. 03, 2014 Rise Set
Actual Time 6:35 AM IST 4:53 PM IST
Civil Twilight 6:09 AM IST 5:19 PM IST
Nautical Twilight 5:39 AM IST 5:49 PM IST
Astronomical Twilight 5:10 AM IST 6:18 PM IST
Moon 7:57 AM IST (1/3) 7:25 PM IST (1/3)
Length of Visible Light 11h 10m
Length of Day
10h 18m
Waxing Crescent, 6% of the Moon is Illuminated
Jan 3
Waxing Crescent
Jan 8
First Quarter
Jan 16
Full
Jan 24
Last Quarter
Jan 30
New

Hourly Weather History & Observations

Time (IST) Temp. Dew Point Humidity Pressure Visibility Wind Dir Wind Speed Gust Speed Precip Events Conditions
2:00 AM 55 °F 44 °F 58% 30.12 in - North 4.6 mph - -  
5:00 AM 54 °F 46 °F 65% 30.12 in - NNE 4.6 mph - -  
5:30 AM 50.0 °F 44.6 °F 82% 30.12 in - ENE 8.1 mph - N/A   Clear
5:50 AM 50.0 °F 44.6 °F 82% 30.12 in - ENE 6.9 mph - N/A   Clear
6:50 AM 48.2 °F 42.8 °F 82% 30.12 in - ENE 9.2 mph - N/A   Clear
7:50 AM 53.6 °F 46.4 °F 77% 30.15 in - NE 10.4 mph - N/A   Clear
8:00 AM 56 °F 46 °F 59% 30.14 in - North 5.8 mph - -  
8:50 AM 57.2 °F 46.4 °F 67% 30.15 in - NE 13.8 mph - N/A   Clear
9:50 AM 60.8 °F 46.4 °F 59% 30.15 in - NE 13.8 mph - N/A   Clear
10:50 AM 62.6 °F 46.4 °F 55% 30.12 in - NE 17.3 mph - N/A   Clear
11:00 AM 64 °F 45 °F 39% 30.11 in - NNE 10.4 mph - -  
11:50 AM 66.2 °F 46.4 °F 49% 30.09 in - NE 17.3 mph - N/A   Clear
12:50 PM 66.2 °F 44.6 °F 46% 30.06 in - NE 18.4 mph - N/A   Clear
1:50 PM 69.8 °F 46.4 °F 43% 30.04 in - NE 18.4 mph - N/A   Clear
2:00 PM 70 °F 45 °F 29% 30.02 in - NNE 5.8 mph - -  
2:50 PM 69.8 °F 44.6 °F 40% 30.04 in - NE 19.6 mph - N/A   Clear
3:50 PM 69.8 °F 42.8 °F 38% 30.04 in - NE 19.6 mph - N/A   Clear
4:50 PM 66.2 °F 42.8 °F 43% 30.04 in - NE 18.4 mph - N/A   Clear
5:00 PM 65 °F 42 °F 31% 30.03 in - NNE 9.2 mph - -  
8:00 PM 60 °F 42 °F 41% 30.07 in - ENE 2.3 mph - -  
11:00 PM 54 °F 43 °F 56% 30.08 in - NE 1.2 mph - -